Weather in Berezovka

Ukraine / Odesa District     47°12′01″N   30°55′01″E
temp.,
°C
wind,
m/s
gust,
m/s
humid.,
%
clouds,
%
prec.,
mm/h
press.,
hPa
HPBL,
m
22 april, thu
thu2200:00+9ssw337219 0.0 101834
03:00+10ssw3677100 0.0 1018144
06:00+9s3478100 0.0 1019104
09:00+11s477529 0.0 1020306
12:00+17s654362 0.1 10192153
15:00+16s675099 0.1 10191603
18:00+14s576184 0.8 1018579
21:00+10sse6118226 0.9 1019238
23 april, fri
fri2300:00+10s51282100 0.0 1018337
03:00+9s5128747 0.0 1017271
06:00+8s41093100 0.1 1017233
09:00+12ssw5879100 0.9 1017482
12:00+16wsw4661100 0.3 10161211
15:00+13sw7869100 2.7 10161037
18:00+8n6792100 8.5 1017547
21:00+7n4887100 9.8 1019421
24 april, sat
sat2400:00+5wnw35944 0.0 1020142
03:00+4w38920 0.0 1019194
06:00+4wnw37830 0.0 1020129
09:00+8wnw69615 0.0 1021938
12:00+8wnw9116397 0.1 10221297
15:00+11wnw8113415 0.1 10222349
18:00+10nw710405 0.0 10222452
21:00+6nw33520 0.0 102335
25 april, sun
sun2500:00+5w22545 0.0 102411
03:00+4wsw22585 0.0 102418
06:00+3wsw22605 0.0 102311
09:00+9ssw34465 0.0 1022435
12:00+13ssw553996 0.0 10211809
15:00+13sw7844100 0.0 10191748
18:00+11ssw6864100 0.1 10191113
21:00+9ssw51063100 0.3 1020339
26 april, mon
mon2600:00+8w4786100 0.3 1020498
03:00+6nnw4880100 0.4 1020442
06:00+4nw48860 0.0 1020232
09:00+7nw56540 0.0 1021853
12:00+10nw57405 0.0 10211876
15:00+13wnw7934100 0.0 10192622
18:00+12nw694240 0.0 10192373
21:00+7nnw3456100 0.0 102058